Weather History for KHKY - June, 2014

Change the Weather History Date:

Monday, June 16, 2014

  Actual Average Record
Temperature  
Mean Temperature 78 °F -  
Max Temperature 90 °F 83 °F 95 °F (1981)
Min Temperature 68 °F 64 °F 50 °F (1961)
Cooling Degree Days 14    
Growing Degree Days 28 (Base 50)    
Moisture  
Dew Point 66 °F    
Average Humidity 72    
Maximum Humidity 90    
Minimum Humidity 45    
Precipitation  
Precipitation 0.01 in - - ()
Sea Level Pressure  
Sea Level Pressure 30.13 in    
Wind  
Wind Speed 2 mph (WSW)    
Max Wind Speed 9 mph    
Max Gust Speed -    
Visibility 10 miles    
Events Rain , Thunderstorm    
Averages and records for this station are not official NWS values.
T = Trace of Precipitation, MM = Missing Value Source: NWS Daily Summary

Daily Weather History Graph

Daily Weather History Graph

Search for Another Location

Airport or City:

Trip Planner

Search our weather history database for the weather conditions in past years. The results will help you decide how hot, cold, wet, or windy it might be!

Date:

Astronomy

Jun. 16, 2014 Rise Set
Actual Time 6:09 AM EDT 8:43 PM EDT
Civil Twilight 5:38 AM EDT 9:13 PM EDT
Nautical Twilight 5:01 AM EDT 9:50 PM EDT
Astronomical Twilight 4:20 AM EDT 10:32 PM EDT
Moon 11:42 PM EDT (6/16) 10:04 AM EDT (6/16)
Length of Visible Light 15h 34m
Length of Day
14h 34m
Waning Gibbous, 83% of the Moon is Illuminated
Jun 16
Waning Gibbous
Jun 19
Last Quarter
Jun 27
New
Jul 5
First Quarter
Jul 12
Full

Hourly Weather History & Observations

Time (EDT) Temp. Heat Index Dew Point Humidity Pressure Visibility Wind Dir Wind Speed Gust Speed Precip Events Conditions
12:53 AM 73.0 °F - 63.0 °F 71% 30.12 in 10.0 mi Calm Calm - N/A   Mostly Cloudy
1:53 AM 71.1 °F - 64.9 °F 81% 30.12 in 10.0 mi Calm Calm - N/A   Overcast
2:53 AM 71.1 °F - 64.0 °F 78% 30.13 in 10.0 mi SW 3.5 mph - N/A   Scattered Clouds
3:53 AM 70.0 °F - 64.0 °F 81% 30.11 in 10.0 mi South 3.5 mph - N/A   Clear
4:53 AM 69.1 °F - 64.0 °F 84% 30.12 in 10.0 mi Calm Calm - N/A   Clear
5:53 AM 68.0 °F - 64.0 °F 87% 30.13 in 9.0 mi Calm Calm - N/A   Partly Cloudy
6:53 AM 68.0 °F - 64.9 °F 90% 30.14 in 6.0 mi Calm Calm - N/A   Clear
7:53 AM 73.0 °F - 66.0 °F 79% 30.14 in 10.0 mi Calm Calm - N/A   Partly Cloudy
8:53 AM 75.9 °F - 68.0 °F 76% 30.16 in 10.0 mi North 4.6 mph - N/A   Mostly Cloudy
9:53 AM 79.0 °F - 66.9 °F 66% 30.16 in 10.0 mi Calm Calm - N/A   Clear
10:53 AM 82.9 °F 85.8 °F 68.0 °F 60% 30.16 in 10.0 mi Variable 5.8 mph - N/A   Clear
11:53 AM 86.0 °F 88.2 °F 66.0 °F 51% 30.15 in 10.0 mi Variable 3.5 mph - N/A   Clear
12:53 PM 89.1 °F 91.0 °F 64.9 °F 45% 30.13 in 10.0 mi Variable 3.5 mph - N/A   Scattered Clouds
1:53 PM 87.1 °F 89.2 °F 66.0 °F 49% 30.12 in 10.0 mi SSW 8.1 mph - N/A   Scattered Clouds
2:53 PM 84.9 °F 88.8 °F 69.1 °F 59% 30.10 in 10.0 mi Variable 3.5 mph - 0.01 in   Overcast
3:03 PM 84.2 °F 86.6 °F 66.2 °F 55% 30.17 in 10.0 mi Calm Calm - N/A Thunderstorm Overcast
3:53 PM 75.9 °F - 69.1 °F 79% 30.11 in 8.0 mi SW 5.8 mph - 0.00 in Rain , Thunderstorm Light Rain
4:38 PM 77.0 °F - 68.0 °F 74% 30.17 in 10.0 mi WSW 3.5 mph - 0.00 in   Overcast
4:53 PM 75.9 °F - 66.9 °F 74% 30.10 in 10.0 mi NW 5.8 mph - 0.00 in   Scattered Clouds
5:53 PM 73.9 °F - 64.9 °F 73% 30.13 in 10.0 mi SSW 9.2 mph - N/A   Clear
6:53 PM 73.9 °F - 66.0 °F 76% 30.11 in 10.0 mi West 5.8 mph - N/A   Clear
7:53 PM 75.9 °F - 66.9 °F 74% 30.09 in 10.0 mi WSW 6.9 mph - N/A   Clear
9:53 PM 73.9 °F - 66.9 °F 79% 30.10 in 10.0 mi Calm Calm - N/A   Clear
10:53 PM 72.0 °F - 66.9 °F 84% 30.12 in 10.0 mi Calm Calm - N/A   Clear
11:53 PM 71.1 °F - 66.9 °F 87% 30.12 in 10.0 mi Calm Calm - N/A   Clear